Time,TemperatureF,DewpointF,PressureIn,WindDirection,WindDirectionDegrees,WindSpeedMPH,WindSpeedGustMPH,Humidity,HourlyPrecipIn,Conditions,Clouds,dailyrainin,SoftwareType,DateUTC
2013-04-20 00:04:00,48.4,46.8,30.18,SE,126,2.0,3.0,94,0.00,,,0.00,Wunderground v.1.15,2013-04-20 07:04:00,
2013-04-20 00:09:00,48.4,46.5,30.18,SSE,157,2.0,3.0,93,0.00,,,0.00,Wunderground v.1.15,2013-04-20 07:09:00,
2013-04-20 00:15:00,48.4,46.5,30.18,SSE,148,3.0,5.0,93,0.00,,,0.00,Wunderground v.1.15,2013-04-20 07:15:00,
2013-04-20 00:20:00,48.4,46.5,30.18,SSW,192,4.0,5.0,93,0.00,,,0.00,Wunderground v.1.15,2013-04-20 07:20:00,
2013-04-20 00:26:00,48.4,46.8,30.19,SSE,156,6.0,8.0,94,0.00,,,0.00,Wunderground v.1.15,2013-04-20 07:26:00,
2013-04-20 00:31:00,48.4,46.8,30.19,SSW,200,6.0,6.0,94,0.00,,,0.00,Wunderground v.1.15,2013-04-20 07:31:00,
2013-04-20 00:37:00,48.3,46.7,30.19,SSW,205,4.0,6.0,94,0.00,,,0.00,Wunderground v.1.15,2013-04-20 07:37:00,
2013-04-20 00:42:00,48.2,46.6,30.19,SSW,205,1.0,2.0,94,0.00,,,0.00,Wunderground v.1.15,2013-04-20 07:42:00,
2013-04-20 00:48:00,48.1,46.5,30.20,South,172,1.0,4.0,94,0.00,,,0.00,Wunderground v.1.15,2013-04-20 07:48:00,
2013-04-20 00:54:00,48.0,46.6,30.20,SSW,195,0.0,1.0,95,0.00,,,0.00,Wunderground v.1.15,2013-04-20 07:54:00,
2013-04-20 00:59:00,47.9,46.3,30.20,SSE,157,0.0,2.0,94,0.00,,,0.00,Wunderground v.1.15,2013-04-20 07:59:00,
2013-04-20 01:05:00,48.0,46.6,30.20,SSE,160,2.0,3.0,95,0.00,,,0.00,Wunderground v.1.15,2013-04-20 08:05:00,
2013-04-20 01:10:00,48.1,46.5,30.20,South,172,3.0,3.0,94,0.00,,,0.00,Wunderground v.1.15,2013-04-20 08:10:00,
2013-04-20 01:16:00,48.1,46.5,30.20,SE,124,2.0,3.0,94,0.00,,,0.00,Wunderground v.1.15,2013-04-20 08:16:00,
2013-04-20 01:21:00,48.0,46.4,30.20,SSE,167,1.0,1.0,94,0.00,,,0.00,Wunderground v.1.15,2013-04-20 08:21:00,
2013-04-20 01:27:00,47.9,46.3,30.20,SE,144,1.0,4.0,94,0.00,,,0.00,Wunderground v.1.15,2013-04-20 08:27:00,
2013-04-20 01:32:00,47.9,46.3,30.19,South,188,1.0,1.0,94,0.00,,,0.00,Wunderground v.1.15,2013-04-20 08:32:00,
2013-04-20 01:38:00,47.9,46.3,30.19,SSE,147,1.0,2.0,94,0.00,,,0.00,Wunderground v.1.15,2013-04-20 08:38:00,
2013-04-20 01:43:00,47.9,46.3,30.19,SSE,160,1.0,3.0,94,0.00,,,0.00,Wunderground v.1.15,2013-04-20 08:43:00,
2013-04-20 01:49:00,47.8,46.2,30.19,SE,136,1.0,3.0,94,0.00,,,0.00,Wunderground v.1.15,2013-04-20 08:49:00,
2013-04-20 01:54:00,47.8,46.2,30.19,SE,141,2.0,3.0,94,0.00,,,0.00,Wunderground v.1.15,2013-04-20 08:54:00,
2013-04-20 02:00:00,47.6,46.0,30.19,South,169,2.0,2.0,94,0.00,,,0.00,Wunderground v.1.15,2013-04-20 09:00:00,
2013-04-20 02:06:00,47.5,45.9,30.19,WNW,294,1.0,2.0,94,0.00,,,0.00,Wunderground v.1.15,2013-04-20 09:06:00,
2013-04-20 02:11:00,47.4,45.8,30.19,NE,36,0.0,0.0,94,0.00,,,0.00,Wunderground v.1.15,2013-04-20 09:11:00,
2013-04-20 02:17:00,47.3,45.7,30.19,NNW,338,1.0,5.0,94,0.00,,,0.00,Wunderground v.1.15,2013-04-20 09:17:00,
2013-04-20 02:22:00,47.3,45.7,30.19,NNW,331,1.0,1.0,94,0.00,,,0.00,Wunderground v.1.15,2013-04-20 09:22:00,
2013-04-20 02:28:00,47.2,45.6,30.19,SW,229,1.0,3.0,94,0.00,,,0.00,Wunderground v.1.15,2013-04-20 09:28:00,
2013-04-20 02:33:00,47.2,45.6,30.19,WSW,254,2.0,2.0,94,0.00,,,0.00,Wunderground v.1.15,2013-04-20 09:33:00,
2013-04-20 02:39:00,47.1,45.5,30.19,South,189,1.0,3.0,94,0.00,,,0.00,Wunderground v.1.15,2013-04-20 09:39:00,
2013-04-20 02:44:00,47.1,45.5,30.19,SE,135,1.0,1.0,94,0.00,,,0.00,Wunderground v.1.15,2013-04-20 09:44:00,
2013-04-20 02:50:00,47.0,45.4,30.19,SSE,162,0.0,1.0,94,0.00,,,0.00,Wunderground v.1.15,2013-04-20 09:50:00,
2013-04-20 02:55:00,46.9,45.3,30.19,SE,135,1.0,2.0,94,0.00,,,0.00,Wunderground v.1.15,2013-04-20 09:55:00,
2013-04-20 03:01:00,46.8,45.2,30.19,SSE,154,2.0,2.0,94,0.00,,,0.00,Wunderground v.1.15,2013-04-20 10:01:00,
2013-04-20 03:06:00,46.7,45.1,30.19,SE,137,2.0,4.0,94,0.00,,,0.00,Wunderground v.1.15,2013-04-20 10:06:00,
2013-04-20 03:12:00,46.7,45.1,30.19,SE,145,3.0,3.0,94,0.00,,,0.00,Wunderground v.1.15,2013-04-20 10:12:00,
2013-04-20 03:18:00,46.6,45.0,30.20,SE,143,2.0,5.0,94,0.00,,,0.00,Wunderground v.1.15,2013-04-20 10:18:00,
2013-04-20 03:23:00,46.5,44.9,30.20,SE,133,2.0,2.0,94,0.00,,,0.00,Wunderground v.1.15,2013-04-20 10:23:00,
2013-04-20 03:29:00,46.5,44.9,30.20,SE,129,1.0,2.0,94,0.00,,,0.00,Wunderground v.1.15,2013-04-20 10:29:00,
2013-04-20 03:34:00,46.4,44.8,30.20,SSE,148,1.0,3.0,94,0.00,,,0.00,Wunderground v.1.15,2013-04-20 10:34:00,
2013-04-20 03:40:00,46.3,44.7,30.20,WSW,240,1.0,2.0,94,0.00,,,0.00,Wunderground v.1.15,2013-04-20 10:40:00,
2013-04-20 03:45:00,46.2,44.6,30.20,SSE,164,1.0,3.0,94,0.00,,,0.00,Wunderground v.1.15,2013-04-20 10:45:00,
2013-04-20 03:51:00,46.0,44.4,30.20,SSE,166,1.0,2.0,94,0.00,,,0.00,Wunderground v.1.15,2013-04-20 10:51:00,
2013-04-20 03:56:00,45.9,44.5,30.20,SSW,205,1.0,4.0,95,0.00,,,0.00,Wunderground v.1.15,2013-04-20 10:56:00,
2013-04-20 04:02:00,45.6,44.3,30.20,SE,146,1.0,1.0,95,0.00,,,0.00,Wunderground v.1.15,2013-04-20 11:02:00,
2013-04-20 04:07:00,45.5,44.2,30.20,South,182,1.0,3.0,95,0.00,,,0.00,Wunderground v.1.15,2013-04-20 11:07:00,
2013-04-20 04:13:00,45.6,44.3,30.20,SSE,167,2.0,4.0,95,0.00,,,0.00,Wunderground v.1.15,2013-04-20 11:13:00,
2013-04-20 04:18:00,45.6,44.3,30.20,SSW,198,3.0,4.0,95,0.00,,,0.00,Wunderground v.1.15,2013-04-20 11:18:00,
2013-04-20 04:24:00,45.6,44.3,30.20,SSE,163,3.0,3.0,95,0.00,,,0.00,Wunderground v.1.15,2013-04-20 11:24:00,
2013-04-20 04:29:00,45.6,44.3,30.21,SSE,167,2.0,3.0,95,0.00,,,0.00,Wunderground v.1.15,2013-04-20 11:29:00,
2013-04-20 04:35:00,45.5,44.2,30.21,SE,131,1.0,2.0,95,0.00,,,0.00,Wunderground v.1.15,2013-04-20 11:35:00,
2013-04-20 04:41:00,45.3,44.0,30.21,SE,145,1.0,1.0,95,0.00,,,0.00,Wunderground v.1.15,2013-04-20 11:41:00,
2013-04-20 04:46:00,45.3,44.0,30.21,NE,34,0.0,1.0,95,0.00,,,0.00,Wunderground v.1.15,2013-04-20 11:46:00,
2013-04-20 04:52:00,45.3,44.0,30.22,SE,141,0.0,2.0,95,0.00,,,0.00,Wunderground v.1.15,2013-04-20 11:52:00,
2013-04-20 04:57:00,45.5,44.2,30.21,South,188,1.0,3.0,95,0.00,,,0.00,Wunderground v.1.15,2013-04-20 11:57:00,
2013-04-20 05:03:00,45.6,44.3,30.22,South,180,3.0,5.0,95,0.00,,,0.00,Wunderground v.1.15,2013-04-20 12:03:00,
2013-04-20 05:08:00,45.7,44.4,30.21,SSE,163,3.0,5.0,95,0.00,,,0.00,Wunderground v.1.15,2013-04-20 12:08:00,
2013-04-20 05:14:00,45.7,44.1,30.21,SSE,151,3.0,3.0,94,0.00,,,0.00,Wunderground v.1.15,2013-04-20 12:14:00,
2013-04-20 05:19:00,45.7,44.1,30.21,SE,128,2.0,3.0,94,0.00,,,0.00,Wunderground v.1.15,2013-04-20 12:19:00,
2013-04-20 05:25:00,45.6,44.0,30.22,NNE,33,1.0,2.0,94,0.00,,,0.00,Wunderground v.1.15,2013-04-20 12:25:00,
2013-04-20 05:30:00,45.6,44.3,30.22,NE,34,0.0,0.0,95,0.00,,,0.00,Wunderground v.1.15,2013-04-20 12:30:00,
2013-04-20 05:36:00,45.7,44.4,30.22,SSE,153,0.0,1.0,95,0.00,,,0.00,Wunderground v.1.15,2013-04-20 12:36:00,
2013-04-20 05:41:00,45.7,44.4,30.22,SSE,167,0.0,0.0,95,0.00,,,0.00,Wunderground v.1.15,2013-04-20 12:41:00,
2013-04-20 05:47:00,45.7,44.1,30.22,SE,142,1.0,3.0,94,0.00,,,0.00,Wunderground v.1.15,2013-04-20 12:47:00,
2013-04-20 05:53:00,45.7,44.1,30.22,South,175,2.0,3.0,94,0.00,,,0.00,Wunderground v.1.15,2013-04-20 12:53:00,
2013-04-20 05:58:00,45.7,44.1,30.22,SSW,202,2.0,3.0,94,0.00,,,0.00,Wunderground v.1.15,2013-04-20 12:58:00,
2013-04-20 06:03:00,45.6,44.0,30.23,SE,146,2.0,2.0,94,0.00,,,0.00,Wunderground v.1.15,2013-04-20 13:03:00,
2013-04-20 06:09:00,45.6,44.0,30.23,SE,130,1.0,2.0,94,0.00,,,0.00,Wunderground v.1.15,2013-04-20 13:09:00,
2013-04-20 06:15:00,45.6,44.0,30.23,South,174,1.0,2.0,94,0.00,,,0.00,Wunderground v.1.15,2013-04-20 13:15:00,
2013-04-20 06:20:00,45.6,44.0,30.23,South,174,1.0,1.0,94,0.00,,,0.00,Wunderground v.1.15,2013-04-20 13:20:00,
2013-04-20 06:26:00,45.6,44.0,30.22,South,180,1.0,3.0,94,0.00,,,0.00,Wunderground v.1.15,2013-04-20 13:26:00,
2013-04-20 06:31:00,45.7,44.1,30.22,SW,231,1.0,1.0,94,0.00,,,0.00,Wunderground v.1.15,2013-04-20 13:31:00,
2013-04-20 06:37:00,45.7,44.1,30.22,SSE,167,1.0,2.0,94,0.00,,,0.00,Wunderground v.1.15,2013-04-20 13:37:00,
2013-04-20 06:42:00,45.7,44.1,30.22,SSE,153,1.0,1.0,94,0.00,,,0.00,Wunderground v.1.15,2013-04-20 13:42:00,
2013-04-20 06:48:00,45.8,44.2,30.22,South,174,1.0,4.0,94,0.00,,,0.00,Wunderground v.1.15,2013-04-20 13:48:00,
2013-04-20 06:53:00,45.8,44.2,30.23,SE,136,1.0,3.0,94,0.00,,,0.00,Wunderground v.1.15,2013-04-20 13:53:00,
2013-04-20 06:59:00,45.8,43.9,30.23,SSE,156,1.0,3.0,93,0.00,,,0.00,Wunderground v.1.15,2013-04-20 13:59:00,
2013-04-20 07:05:00,45.9,44.3,30.23,SSE,156,2.0,3.0,94,0.00,,,0.00,Wunderground v.1.15,2013-04-20 14:05:00,
2013-04-20 07:10:00,45.9,44.0,30.23,SSE,156,2.0,3.0,93,0.00,,,0.00,Wunderground v.1.15,2013-04-20 14:10:00,
2013-04-20 07:15:00,46.0,44.4,30.23,SSE,158,2.0,3.0,94,0.00,,,0.00,Wunderground v.1.15,2013-04-20 14:15:00,
2013-04-20 07:21:00,46.0,44.1,30.23,SE,137,2.0,3.0,93,0.00,,,0.00,Wunderground v.1.15,2013-04-20 14:21:00,
2013-04-20 07:27:00,46.0,44.1,30.23,SSE,162,2.0,3.0,93,0.00,,,0.00,Wunderground v.1.15,2013-04-20 14:27:00,
2013-04-20 07:32:00,46.0,44.1,30.23,SE,132,1.0,1.0,93,0.00,,,0.00,Wunderground v.1.15,2013-04-20 14:32:00,
2013-04-20 07:38:00,46.1,44.2,30.24,SE,144,0.0,2.0,93,0.00,,,0.00,Wunderground v.1.15,2013-04-20 14:38:00,
2013-04-20 07:43:00,46.2,44.6,30.24,SSE,165,0.0,2.0,94,0.00,,,0.00,Wunderground v.1.15,2013-04-20 14:43:00,
2013-04-20 07:49:00,46.1,44.2,30.23,SE,138,1.0,2.0,93,0.00,,,0.00,Wunderground v.1.15,2013-04-20 14:49:00,
2013-04-20 07:54:00,46.2,44.3,30.24,SSE,162,1.0,2.0,93,0.00,,,0.00,Wunderground v.1.15,2013-04-20 14:54:00,
2013-04-20 08:00:00,46.2,44.3,30.24,South,187,1.0,2.0,93,0.00,,,0.00,Wunderground v.1.15,2013-04-20 15:00:00,
2013-04-20 08:05:00,46.2,44.6,30.24,SSE,152,1.0,2.0,94,0.00,,,0.00,Wunderground v.1.15,2013-04-20 15:05:00,
2013-04-20 08:11:00,46.0,44.4,30.24,SSE,167,1.0,3.0,94,0.00,,,0.00,Wunderground v.1.15,2013-04-20 15:11:00,
2013-04-20 08:17:00,45.9,44.3,30.24,SSE,164,2.0,3.0,94,0.00,,,0.00,Wunderground v.1.15,2013-04-20 15:17:00,
2013-04-20 08:22:00,45.9,44.5,30.24,SSE,148,2.0,4.0,95,0.00,,,0.00,Wunderground v.1.15,2013-04-20 15:22:00,
2013-04-20 08:27:00,45.9,44.5,30.24,SSE,168,3.0,4.0,95,0.00,,,0.00,Wunderground v.1.15,2013-04-20 15:27:00,
2013-04-20 08:33:00,45.9,44.5,30.24,South,169,3.0,3.0,95,0.00,,,0.00,Wunderground v.1.15,2013-04-20 15:33:00,
2013-04-20 08:39:00,46.0,44.6,30.24,SE,129,2.0,3.0,95,0.00,,,0.00,Wunderground v.1.15,2013-04-20 15:39:00,
2013-04-20 08:44:00,46.1,44.7,30.24,SE,134,2.0,3.0,95,0.00,,,0.00,Wunderground v.1.15,2013-04-20 15:44:00,
2013-04-20 08:50:00,46.2,44.8,30.24,SSE,162,2.0,2.0,95,0.00,,,0.00,Wunderground v.1.15,2013-04-20 15:50:00,
2013-04-20 08:55:00,46.3,44.9,30.25,SSE,163,2.0,2.0,95,0.00,,,0.00,Wunderground v.1.15,2013-04-20 15:55:00,
2013-04-20 09:01:00,46.4,45.0,30.24,SSE,161,1.0,2.0,95,0.00,,,0.00,Wunderground v.1.15,2013-04-20 16:01:00,
2013-04-20 09:06:00,46.5,45.1,30.25,SSE,147,1.0,2.0,95,0.00,,,0.00,Wunderground v.1.15,2013-04-20 16:06:00,
2013-04-20 09:12:00,46.7,45.3,30.25,SE,146,1.0,2.0,95,0.00,,,0.00,Wunderground v.1.15,2013-04-20 16:12:00,
2013-04-20 09:17:00,46.9,45.5,30.25,SE,144,0.0,2.0,95,0.00,,,0.00,Wunderground v.1.15,2013-04-20 16:17:00,
2013-04-20 09:23:00,46.8,45.4,30.25,ESE,105,1.0,1.0,95,0.00,,,0.00,Wunderground v.1.15,2013-04-20 16:23:00,
2013-04-20 09:28:00,46.7,45.6,30.25,SE,135,1.0,1.0,96,0.00,,,0.00,Wunderground v.1.15,2013-04-20 16:28:00,
2013-04-20 09:34:00,46.7,45.6,30.25,ESE,108,0.0,1.0,96,0.00,,,0.00,Wunderground v.1.15,2013-04-20 16:34:00,
2013-04-20 09:39:00,46.8,45.7,30.25,ESE,113,1.0,1.0,96,0.00,,,0.00,Wunderground v.1.15,2013-04-20 16:39:00,
2013-04-20 09:45:00,46.9,46.1,30.25,East,97,1.0,1.0,97,0.00,,,0.00,Wunderground v.1.15,2013-04-20 16:45:00,
2013-04-20 09:51:00,46.9,46.1,30.25,ESE,102,1.0,1.0,97,0.00,,,0.00,Wunderground v.1.15,2013-04-20 16:51:00,
2013-04-20 09:56:00,47.2,46.4,30.25,ESE,105,0.0,1.0,97,0.00,,,0.00,Wunderground v.1.15,2013-04-20 16:56:00,
2013-04-20 10:02:00,47.2,46.1,30.25,SE,137,0.0,1.0,96,0.00,,,0.00,Wunderground v.1.15,2013-04-20 17:02:00,
2013-04-20 10:07:00,47.5,46.7,30.25,SE,132,1.0,1.0,97,0.00,,,0.00,Wunderground v.1.15,2013-04-20 17:07:00,
2013-04-20 10:13:00,47.6,46.5,30.25,ESE,112,1.0,2.0,96,0.00,,,0.00,Wunderground v.1.15,2013-04-20 17:13:00,
2013-04-20 10:18:00,48.0,46.9,30.25,SE,132,0.0,2.0,96,0.00,,,0.00,Wunderground v.1.15,2013-04-20 17:18:00,
2013-04-20 10:24:00,48.3,46.9,30.25,ENE,75,1.0,2.0,95,0.00,,,0.00,Wunderground v.1.15,2013-04-20 17:24:00,
2013-04-20 10:29:00,48.6,47.2,30.26,East,101,1.0,2.0,95,0.00,,,0.00,Wunderground v.1.15,2013-04-20 17:29:00,
2013-04-20 10:35:00,48.7,47.1,30.26,SE,124,1.0,3.0,94,0.00,,,0.00,Wunderground v.1.15,2013-04-20 17:35:00,
2013-04-20 10:41:00,49.1,47.4,30.26,SSE,159,1.0,2.0,94,0.00,,,0.00,Wunderground v.1.15,2013-04-20 17:41:00,
2013-04-20 10:47:00,49.1,47.2,30.26,SE,144,2.0,3.0,93,0.00,,,0.00,Wunderground v.1.15,2013-04-20 17:47:00,
2013-04-20 10:53:00,49.1,47.2,30.26,SSE,147,2.0,3.0,93,0.00,,,0.00,Wunderground v.1.15,2013-04-20 17:53:00,
2013-04-20 10:58:00,49.3,47.4,30.26,ESE,110,3.0,4.0,93,0.00,,,0.00,Wunderground v.1.15,2013-04-20 17:58:00,
2013-04-20 11:04:00,49.6,47.7,30.26,SSE,151,3.0,5.0,93,0.00,,,0.00,Wunderground v.1.15,2013-04-20 18:04:00,
2013-04-20 11:09:00,50.3,48.4,30.26,SSE,152,3.0,5.0,93,0.00,,,0.00,Wunderground v.1.15,2013-04-20 18:09:00,
2013-04-20 11:15:00,50.9,47.8,30.27,SW,221,3.0,4.0,89,0.00,,,0.00,Wunderground v.1.15,2013-04-20 18:15:00,
2013-04-20 11:20:00,51.0,47.9,30.27,ESE,117,2.0,2.0,89,0.00,,,0.00,Wunderground v.1.15,2013-04-20 18:20:00,
2013-04-20 11:26:00,51.4,48.6,30.26,ESE,108,1.0,3.0,90,0.00,,,0.00,Wunderground v.1.15,2013-04-20 18:26:00,
2013-04-20 11:31:00,51.8,48.4,30.26,ENE,77,1.0,4.0,88,0.00,,,0.00,Wunderground v.1.15,2013-04-20 18:31:00,
2013-04-20 11:37:00,51.8,49.0,30.26,ENE,65,2.0,4.0,90,0.00,,,0.00,Wunderground v.1.15,2013-04-20 18:37:00,
2013-04-20 11:42:00,52.0,48.3,30.27,ENE,77,2.0,3.0,87,0.00,,,0.00,Wunderground v.1.15,2013-04-20 18:42:00,
2013-04-20 11:48:00,51.7,48.3,30.27,NE,54,2.0,3.0,88,0.00,,,0.00,Wunderground v.1.15,2013-04-20 18:48:00,
2013-04-20 11:53:00,51.7,48.0,30.27,East,89,2.0,2.0,87,0.00,,,0.00,Wunderground v.1.15,2013-04-20 18:53:00,
2013-04-20 11:59:00,51.8,48.4,30.27,NE,43,2.0,3.0,88,0.00,,,0.00,Wunderground v.1.15,2013-04-20 18:59:00,
2013-04-20 12:05:00,51.9,48.5,30.27,ENE,72,3.0,4.0,88,0.00,,,0.00,Wunderground v.1.15,2013-04-20 19:05:00,
2013-04-20 12:10:00,52.0,48.6,30.26,NE,41,3.0,4.0,88,0.00,,,0.00,Wunderground v.1.15,2013-04-20 19:10:00,
2013-04-20 12:16:00,52.2,48.8,30.26,ENE,63,2.0,4.0,88,0.00,,,0.00,Wunderground v.1.15,2013-04-20 19:16:00,
2013-04-20 12:21:00,52.2,48.4,30.26,ENE,75,2.0,2.0,87,0.00,,,0.00,Wunderground v.1.15,2013-04-20 19:21:00,
2013-04-20 12:27:00,52.2,48.1,30.26,East,98,2.0,2.0,86,0.00,,,0.00,Wunderground v.1.15,2013-04-20 19:27:00,
2013-04-20 12:32:00,52.5,48.1,30.26,SE,127,1.0,2.0,85,0.00,,,0.00,Wunderground v.1.15,2013-04-20 19:32:00,
2013-04-20 12:38:00,52.9,48.8,30.26,SSE,152,2.0,3.0,86,0.00,,,0.00,Wunderground v.1.15,2013-04-20 19:38:00,
2013-04-20 12:43:00,53.1,48.1,30.26,South,169,3.0,3.0,83,0.00,,,0.00,Wunderground v.1.15,2013-04-20 19:43:00,
2013-04-20 12:49:00,53.4,48.4,30.26,SSE,160,2.0,3.0,83,0.00,,,0.00,Wunderground v.1.15,2013-04-20 19:49:00,
2013-04-20 12:55:00,53.5,47.8,30.26,SE,142,2.0,3.0,81,0.00,,,0.00,Wunderground v.1.15,2013-04-20 19:55:00,
2013-04-20 13:01:00,53.4,47.7,30.25,SE,129,2.0,4.0,81,0.00,,,0.00,Wunderground v.1.15,2013-04-20 20:01:00,
2013-04-20 13:07:00,53.3,47.6,30.25,SE,143,3.0,4.0,81,0.00,,,0.00,Wunderground v.1.15,2013-04-20 20:07:00,
2013-04-20 13:12:00,53.4,47.7,30.25,SE,124,2.0,3.0,81,0.00,,,0.00,Wunderground v.1.15,2013-04-20 20:12:00,
2013-04-20 13:18:00,53.5,47.5,30.25,SSE,150,2.0,3.0,80,0.00,,,0.00,Wunderground v.1.15,2013-04-20 20:18:00,
2013-04-20 13:23:00,53.7,47.7,30.25,SE,141,2.0,2.0,80,0.00,,,0.00,Wunderground v.1.15,2013-04-20 20:23:00,
2013-04-20 13:29:00,54.1,48.7,30.25,SW,228,1.0,2.0,82,0.00,,,0.00,Wunderground v.1.15,2013-04-20 20:29:00,
2013-04-20 13:34:00,54.8,47.7,30.25,SE,140,1.0,2.0,77,0.00,,,0.00,Wunderground v.1.15,2013-04-20 20:34:00,
2013-04-20 13:40:00,55.0,47.6,30.25,SSE,155,0.0,0.0,76,0.00,,,0.00,Wunderground v.1.15,2013-04-20 20:40:00,
2013-04-20 13:45:00,55.3,47.9,30.24,SE,134,0.0,1.0,76,0.00,,,0.00,Wunderground v.1.15,2013-04-20 20:45:00,
2013-04-20 13:51:00,55.3,47.9,30.24,SE,134,1.0,2.0,76,0.00,,,0.00,Wunderground v.1.15,2013-04-20 20:51:00,
2013-04-20 13:56:00,55.0,48.3,30.24,SE,129,2.0,3.0,78,0.00,,,0.00,Wunderground v.1.15,2013-04-20 20:56:00,
2013-04-20 14:02:00,54.8,47.7,30.24,SE,139,2.0,2.0,77,0.00,,,0.00,Wunderground v.1.15,2013-04-20 21:02:00,
2013-04-20 14:07:00,54.9,47.1,30.24,SE,124,2.0,4.0,75,0.00,,,0.00,Wunderground v.1.15,2013-04-20 21:07:00,
2013-04-20 14:13:00,55.0,47.6,30.24,SE,137,2.0,2.0,76,0.00,,,0.00,Wunderground v.1.15,2013-04-20 21:13:00,
2013-04-20 14:19:00,55.3,48.2,30.24,East,96,1.0,2.0,77,0.00,,,0.00,Wunderground v.1.15,2013-04-20 21:19:00,
2013-04-20 14:24:00,55.4,48.7,30.24,ESE,115,1.0,1.0,78,0.00,,,0.00,Wunderground v.1.15,2013-04-20 21:24:00,
2013-04-20 14:30:00,55.4,47.6,30.24,ESE,111,1.0,1.0,75,0.00,,,0.00,Wunderground v.1.15,2013-04-20 21:30:00,
2013-04-20 14:35:00,55.1,47.7,30.24,ENE,63,1.0,1.0,76,0.00,,,0.01,Wunderground v.1.15,2013-04-20 21:35:00,
2013-04-20 14:41:00,55.0,47.6,30.24,ENE,63,1.0,1.0,76,0.00,,,0.01,Wunderground v.1.15,2013-04-20 21:41:00,
2013-04-20 14:46:00,55.0,47.6,30.24,NE,52,1.0,2.0,76,0.00,,,0.01,Wunderground v.1.15,2013-04-20 21:46:00,
2013-04-20 14:52:00,54.6,48.2,30.24,NW,307,2.0,2.0,79,0.00,,,0.01,Wunderground v.1.15,2013-04-20 21:52:00,
2013-04-20 14:57:00,54.2,47.8,30.24,NE,51,2.0,4.0,79,0.00,,,0.01,Wunderground v.1.15,2013-04-20 21:57:00,
2013-04-20 15:03:00,54.0,48.6,30.24,NE,50,2.0,2.0,82,0.00,,,0.01,Wunderground v.1.15,2013-04-20 22:03:00,
2013-04-20 15:08:00,53.9,48.5,30.24,ENE,75,2.0,4.0,82,0.00,,,0.01,Wunderground v.1.15,2013-04-20 22:08:00,
2013-04-20 15:14:00,53.8,48.8,30.24,ENE,60,2.0,3.0,83,0.00,,,0.01,Wunderground v.1.15,2013-04-20 22:14:00,
2013-04-20 15:19:00,53.9,49.8,30.24,North,358,1.0,3.0,86,0.00,,,0.01,Wunderground v.1.15,2013-04-20 22:19:00,
2013-04-20 15:25:00,54.1,49.1,30.24,East,84,1.0,3.0,83,0.00,,,0.01,Wunderground v.1.15,2013-04-20 22:25:00,
2013-04-20 15:31:00,54.1,49.1,30.24,ENE,71,2.0,3.0,83,0.00,,,0.01,Wunderground v.1.15,2013-04-20 22:31:00,
2013-04-20 15:36:00,54.1,49.1,30.24,East,96,3.0,5.0,83,0.00,,,0.01,Wunderground v.1.15,2013-04-20 22:36:00,
2013-04-20 15:42:00,54.2,49.1,30.23,ENE,78,3.0,4.0,83,0.00,,,0.01,Wunderground v.1.15,2013-04-20 22:42:00,
2013-04-20 15:47:00,54.2,49.1,30.23,East,100,2.0,4.0,83,0.00,,,0.01,Wunderground v.1.15,2013-04-20 22:47:00,
2013-04-20 15:53:00,54.3,48.9,30.24,WNW,297,2.0,2.0,82,0.00,,,0.01,Wunderground v.1.15,2013-04-20 22:53:00,
2013-04-20 15:58:00,54.5,49.8,30.23,SE,131,1.0,2.0,84,0.00,,,0.01,Wunderground v.1.15,2013-04-20 22:58:00,
2013-04-20 16:04:00,54.7,49.0,30.23,ESE,120,1.0,2.0,81,0.00,,,0.01,Wunderground v.1.15,2013-04-20 23:04:00,
2013-04-20 16:09:00,54.7,48.6,30.23,SE,129,1.0,2.0,80,0.00,,,0.01,Wunderground v.1.15,2013-04-20 23:09:00,
2013-04-20 16:15:00,54.9,48.8,30.23,SE,124,1.0,1.0,80,0.00,,,0.01,Wunderground v.1.15,2013-04-20 23:15:00,
2013-04-20 16:21:00,55.0,48.9,30.23,ESE,106,0.0,1.0,80,0.00,,,0.01,Wunderground v.1.15,2013-04-20 23:21:00,
2013-04-20 16:27:00,54.7,48.0,30.22,ESE,105,1.0,1.0,78,0.00,,,0.01,Wunderground v.1.15,2013-04-20 23:27:00,
2013-04-20 16:33:00,54.7,48.0,30.23,North,11,1.0,1.0,78,0.00,,,0.01,Wunderground v.1.15,2013-04-20 23:33:00,
2013-04-20 16:38:00,54.7,49.6,30.22,NNE,33,2.0,4.0,83,0.00,,,0.01,Wunderground v.1.15,2013-04-20 23:38:00,
2013-04-20 16:44:00,54.3,49.9,30.22,NNW,332,3.0,5.0,85,0.00,,,0.01,Wunderground v.1.15,2013-04-20 23:44:00,
2013-04-20 16:49:00,54.1,50.0,30.22,NNE,20,3.0,5.0,86,0.00,,,0.01,Wunderground v.1.15,2013-04-20 23:49:00,
2013-04-20 16:55:00,53.8,49.7,30.22,NE,42,4.0,6.0,86,0.00,,,0.01,Wunderground v.1.15,2013-04-20 23:55:00,
2013-04-20 17:01:00,53.4,49.0,30.22,NNE,33,4.0,5.0,85,0.00,,,0.01,Wunderground v.1.15,2013-04-21 00:01:00,
2013-04-20 17:06:00,53.1,49.0,30.22,NNW,331,4.0,8.0,86,0.00,,,0.01,Wunderground v.1.15,2013-04-21 00:06:00,
2013-04-20 17:11:00,53.1,49.0,30.22,North,359,3.0,3.0,86,0.00,,,0.01,Wunderground v.1.15,2013-04-21 00:11:00,
2013-04-20 17:17:00,52.8,48.7,30.22,NNE,13,3.0,8.0,86,0.00,,,0.01,Wunderground v.1.15,2013-04-21 00:17:00,
2013-04-20 17:23:00,52.5,48.7,30.22,ENE,63,5.0,6.0,87,0.00,,,0.01,Wunderground v.1.15,2013-04-21 00:23:00,
2013-04-20 17:28:00,52.5,48.7,30.22,North,349,5.0,8.0,87,0.00,,,0.01,Wunderground v.1.15,2013-04-21 00:28:00,
2013-04-20 17:34:00,52.4,48.6,30.22,NW,324,5.0,5.0,87,0.00,,,0.01,Wunderground v.1.15,2013-04-21 00:34:00,
2013-04-20 17:39:00,52.3,48.5,30.22,West,264,4.0,5.0,87,0.00,,,0.01,Wunderground v.1.15,2013-04-21 00:39:00,
2013-04-20 17:45:00,52.2,48.4,30.22,ENE,70,3.0,5.0,87,0.00,,,0.01,Wunderground v.1.15,2013-04-21 00:45:00,
2013-04-20 17:50:00,52.0,48.6,30.22,NNE,32,3.0,6.0,88,0.00,,,0.01,Wunderground v.1.15,2013-04-21 00:50:00,
2013-04-20 17:56:00,51.8,48.4,30.22,NNE,20,4.0,7.0,88,0.00,,,0.01,Wunderground v.1.15,2013-04-21 00:56:00,
2013-04-20 18:01:00,51.6,48.2,30.22,NNW,334,4.0,4.0,88,0.00,,,0.01,Wunderground v.1.15,2013-04-21 01:01:00,
2013-04-20 18:07:00,51.4,48.3,30.22,NE,37,4.0,5.0,89,0.00,,,0.01,Wunderground v.1.15,2013-04-21 01:07:00,
2013-04-20 18:13:00,51.2,48.1,30.22,NNE,25,4.0,7.0,89,0.00,,,0.01,Wunderground v.1.15,2013-04-21 01:13:00,
2013-04-20 18:19:00,51.2,48.4,30.22,ENE,57,3.0,7.0,90,0.00,,,0.01,Wunderground v.1.15,2013-04-21 01:19:00,
2013-04-20 18:25:00,51.1,48.3,30.22,ENE,75,1.0,4.0,90,0.00,,,0.01,Wunderground v.1.15,2013-04-21 01:25:00,
2013-04-20 18:30:00,51.1,48.3,30.22,NNE,19,2.0,2.0,90,0.00,,,0.01,Wunderground v.1.15,2013-04-21 01:30:00,
2013-04-20 18:36:00,51.0,48.2,30.22,WSW,245,2.0,3.0,90,0.00,,,0.01,Wunderground v.1.15,2013-04-21 01:36:00,
2013-04-20 18:41:00,50.9,48.1,30.22,NW,318,1.0,3.0,90,0.00,,,0.01,Wunderground v.1.15,2013-04-21 01:41:00,
2013-04-20 18:47:00,50.7,48.2,30.22,WNW,302,2.0,3.0,91,0.00,,,0.01,Wunderground v.1.15,2013-04-21 01:47:00,
2013-04-20 18:52:00,50.5,48.3,30.22,NNW,338,2.0,6.0,92,0.00,,,0.01,Wunderground v.1.15,2013-04-21 01:52:00,
2013-04-20 18:58:00,50.4,48.2,30.22,North,349,2.0,6.0,92,0.00,,,0.01,Wunderground v.1.15,2013-04-21 01:58:00,
2013-04-20 19:03:00,50.3,48.1,30.22,NNW,345,1.0,2.0,92,0.00,,,0.01,Wunderground v.1.15,2013-04-21 02:03:00,
2013-04-20 19:11:00,50.2,48.3,30.22,WNW,293,2.0,2.0,93,0.00,,,0.01,Wunderground v.1.15,2013-04-21 02:11:00,
2013-04-20 19:16:00,50.1,47.9,30.22,NNE,30,3.0,4.0,92,0.00,,,0.01,Wunderground v.1.15,2013-04-21 02:16:00,
2013-04-20 19:22:00,49.9,48.0,30.22,NNE,29,2.0,4.0,93,0.00,,,0.01,Wunderground v.1.15,2013-04-21 02:22:00,
2013-04-20 19:28:00,49.7,47.8,30.23,NE,34,2.0,4.0,93,0.00,,,0.01,Wunderground v.1.15,2013-04-21 02:28:00,
2013-04-20 19:33:00,49.6,47.7,30.23,WSW,255,2.0,4.0,93,0.00,,,0.01,Wunderground v.1.15,2013-04-21 02:33:00,
2013-04-20 19:39:00,49.5,47.6,30.23,West,260,1.0,4.0,93,0.00,,,0.01,Wunderground v.1.15,2013-04-21 02:39:00,
2013-04-20 19:44:00,49.4,47.5,30.23,SW,217,1.0,3.0,93,0.00,,,0.01,Wunderground v.1.15,2013-04-21 02:44:00,
2013-04-20 19:50:00,49.3,47.1,30.23,SW,233,2.0,2.0,92,0.00,,,0.01,Wunderground v.1.15,2013-04-21 02:50:00,
2013-04-20 19:55:00,49.2,47.0,30.23,NNE,12,2.0,4.0,92,0.00,,,0.01,Wunderground v.1.15,2013-04-21 02:55:00,
2013-04-20 20:01:00,49.2,47.3,30.23,North,4,2.0,4.0,93,0.00,,,0.01,Wunderground v.1.15,2013-04-21 03:01:00,
2013-04-20 20:06:00,49.1,46.9,30.23,NNW,336,3.0,7.0,92,0.00,,,0.01,Wunderground v.1.15,2013-04-21 03:06:00,
2013-04-20 20:12:00,49.0,46.8,30.23,NE,40,3.0,6.0,92,0.00,,,0.01,Wunderground v.1.15,2013-04-21 03:12:00,
2013-04-20 20:17:00,49.0,46.8,30.23,NW,317,3.0,6.0,92,0.00,,,0.01,Wunderground v.1.15,2013-04-21 03:17:00,
2013-04-20 20:23:00,48.9,46.7,30.23,NE,44,3.0,3.0,92,0.00,,,0.01,Wunderground v.1.15,2013-04-21 03:23:00,
2013-04-20 20:29:00,48.9,46.7,30.23,NNE,32,2.0,3.0,92,0.00,,,0.01,Wunderground v.1.15,2013-04-21 03:29:00,
2013-04-20 20:34:00,48.9,46.7,30.24,ENE,59,1.0,3.0,92,0.00,,,0.01,Wunderground v.1.15,2013-04-21 03:34:00,
2013-04-20 20:40:00,48.9,46.7,30.24,WNW,285,1.0,1.0,92,0.00,,,0.01,Wunderground v.1.15,2013-04-21 03:40:00,
2013-04-20 20:45:00,48.9,46.7,30.24,ENE,73,0.0,2.0,92,0.00,,,0.01,Wunderground v.1.15,2013-04-21 03:45:00,
2013-04-20 20:51:00,48.9,46.7,30.24,NNW,345,1.0,3.0,92,0.00,,,0.01,Wunderground v.1.15,2013-04-21 03:51:00,
2013-04-20 20:56:00,48.9,46.7,30.24,NE,38,2.0,4.0,92,0.00,,,0.01,Wunderground v.1.15,2013-04-21 03:56:00,
2013-04-20 21:01:00,48.9,46.7,30.24,East,83,3.0,3.0,92,0.00,,,0.01,Wunderground v.1.15,2013-04-21 04:01:00,
2013-04-20 21:02:00,48.9,46.4,30.25,ESE,105,2.0,3.0,91,0.00,,,0.01,Wunderground v.1.15,2013-04-21 04:02:00,
2013-04-20 21:03:00,48.9,46.4,30.25,ENE,72,2.0,3.0,91,0.00,,,0.01,Wunderground v.1.15,2013-04-21 04:03:00,
2013-04-20 21:04:00,48.9,46.4,30.25,ENE,72,2.0,3.0,91,0.00,,,0.01,Wunderground v.1.15,2013-04-21 04:04:00,
2013-04-20 21:08:00,48.8,46.6,30.25,East,82,2.0,3.0,92,0.00,,,0.01,Wunderground v.1.15,2013-04-21 04:08:00,
2013-04-20 21:14:00,48.6,46.4,30.25,East,82,1.0,2.0,92,0.00,,,0.01,Wunderground v.1.15,2013-04-21 04:14:00,
2013-04-20 21:19:00,48.5,46.6,30.25,ENE,68,1.0,2.0,93,0.00,,,0.01,Wunderground v.1.15,2013-04-21 04:19:00,
2013-04-20 21:25:00,48.4,46.5,30.25,East,82,1.0,4.0,93,0.00,,,0.01,Wunderground v.1.15,2013-04-21 04:25:00,
2013-04-20 21:31:00,48.3,46.7,30.25,ENE,60,2.0,2.0,94,0.00,,,0.01,Wunderground v.1.15,2013-04-21 04:31:00,
2013-04-20 21:36:00,48.2,46.6,30.25,North,8,3.0,4.0,94,0.00,,,0.01,Wunderground v.1.15,2013-04-21 04:36:00,
2013-04-20 21:42:00,48.2,46.8,30.25,ENE,66,3.0,4.0,95,0.00,,,0.01,Wunderground v.1.15,2013-04-21 04:42:00,
2013-04-20 21:47:00,48.2,46.6,30.26,East,83,3.0,4.0,94,0.00,,,0.01,Wunderground v.1.15,2013-04-21 04:47:00,
2013-04-20 21:53:00,48.2,46.8,30.26,SE,131,2.0,3.0,95,0.00,,,0.01,Wunderground v.1.15,2013-04-21 04:53:00,
2013-04-20 21:58:00,48.1,46.7,30.26,SSE,157,2.0,3.0,95,0.00,,,0.01,Wunderground v.1.15,2013-04-21 04:58:00,
2013-04-20 22:04:00,48.1,46.7,30.26,ENE,78,2.0,6.0,95,0.00,,,0.01,Wunderground v.1.15,2013-04-21 05:04:00,
2013-04-20 22:09:00,48.0,46.4,30.26,ENE,68,4.0,6.0,94,0.00,,,0.01,Wunderground v.1.15,2013-04-21 05:09:00,
2013-04-20 22:15:00,48.0,46.6,30.26,ENE,73,5.0,6.0,95,0.00,,,0.02,Wunderground v.1.15,2013-04-21 05:15:00,
2013-04-20 22:20:00,48.0,46.6,30.26,ENE,68,5.0,5.0,95,0.00,,,0.02,Wunderground v.1.15,2013-04-21 05:20:00,
2013-04-20 22:26:00,48.0,46.6,30.26,ENE,68,4.0,6.0,95,0.00,,,0.02,Wunderground v.1.15,2013-04-21 05:26:00,
2013-04-20 22:31:00,48.0,46.6,30.25,ENE,75,4.0,5.0,95,0.00,,,0.02,Wunderground v.1.15,2013-04-21 05:31:00,
2013-04-20 22:37:00,48.0,46.9,30.26,NE,36,4.0,5.0,96,0.00,,,0.02,Wunderground v.1.15,2013-04-21 05:37:00,
2013-04-20 22:43:00,47.9,46.8,30.26,ENE,77,3.0,4.0,96,0.00,,,0.02,Wunderground v.1.15,2013-04-21 05:43:00,
2013-04-20 22:48:00,47.9,46.8,30.26,East,89,2.0,4.0,96,0.00,,,0.02,Wunderground v.1.15,2013-04-21 05:48:00,
2013-04-20 22:54:00,47.7,46.3,30.26,ENE,70,2.0,2.0,95,0.00,,,0.02,Wunderground v.1.15,2013-04-21 05:54:00,
2013-04-20 22:59:00,47.8,46.7,30.26,ENE,77,2.0,3.0,96,0.00,,,0.02,Wunderground v.1.15,2013-04-21 05:59:00,
2013-04-20 23:05:00,47.8,46.7,30.26,East,86,2.0,4.0,96,0.00,,,0.02,Wunderground v.1.15,2013-04-21 06:05:00,
2013-04-20 23:11:00,47.7,46.6,30.26,ENE,74,2.0,2.0,96,0.00,,,0.02,Wunderground v.1.15,2013-04-21 06:11:00,
2013-04-20 23:17:00,47.7,46.6,30.26,SE,141,2.0,3.0,96,0.00,,,0.03,Wunderground v.1.15,2013-04-21 06:17:00,
2013-04-20 23:23:00,47.6,46.5,30.25,SSE,152,3.0,4.0,96,0.00,,,0.03,Wunderground v.1.15,2013-04-21 06:23:00,
2013-04-20 23:28:00,47.6,46.5,30.25,SSE,149,3.0,4.0,96,0.00,,,0.03,Wunderground v.1.15,2013-04-21 06:28:00,
2013-04-20 23:34:00,47.6,46.2,30.26,ESE,109,2.0,4.0,95,0.00,,,0.03,Wunderground v.1.15,2013-04-21 06:34:00,
2013-04-20 23:39:00,47.7,46.1,30.25,SW,214,3.0,4.0,94,0.00,,,0.03,Wunderground v.1.15,2013-04-21 06:39:00,
2013-04-20 23:45:00,47.7,46.1,30.25,SSE,151,3.0,3.0,94,0.00,,,0.03,Wunderground v.1.15,2013-04-21 06:45:00,
2013-04-20 23:50:00,47.7,46.1,30.25,SE,136,3.0,3.0,94,0.00,,,0.03,Wunderground v.1.15,2013-04-21 06:50:00,
2013-04-20 23:56:00,47.7,46.1,30.25,ESE,123,3.0,6.0,94,0.00,,,0.03,Wunderground v.1.15,2013-04-21 06:56:00,